When you browse on this site, cookies collect data to enhance your experience and personalize the content and advertising you see.
Visit our Privacy Policy to learn more. By continuing to use the site, you agree to this use of cookies and data.
  • en France
  • Liste des pays
  • À 7 jours
  • Température de l'eau
  • Carte météo
  • Widgets météo
  • user-avatar
    Se connecter

    Météo par heure à Cottbus

    Ce jour, 21 Septembre, Samedi

    Heure Température Précipitation Vent Pression Humidité
    00:00 +9°C° 0 mm 2 m/s 763 mmHg 80%
    01:00 +9°C° 0 mm 2 m/s 763 mmHg 81%
    02:00 +9°C° 0 mm 2 m/s 762 mmHg 82%
    03:00 +9°C° 0 mm 2 m/s 762 mmHg 83%
    04:00 +9°C° 0 mm 2 m/s 762 mmHg 84%
    05:00 +9°C° 0 mm 2 m/s 762 mmHg 82%
    06:00 +9°C° 0 mm 2 m/s 762 mmHg 80%
    07:00 +10°C° 0 mm 2 m/s 762 mmHg 78%
    08:00 +13°C° 0 mm 2 m/s 762 mmHg 70%
    09:00 +15°C° 0 mm 2 m/s 761 mmHg 61%
    10:00 +18°C° 0 mm 2 m/s 761 mmHg 53%
    11:00 +20°C° 0 mm 1 m/s 761 mmHg 50%
    12:00 +21°C° 0 mm 1 m/s 761 mmHg 46%
    13:00 +22°C° 0 mm 1 m/s 760 mmHg 43%
    14:00 +22°C° 0 mm 1 m/s 760 mmHg 44%
    15:00 +22°C° 0 mm 1 m/s 760 mmHg 44%
    16:00 +22°C° 0 mm 1 m/s 759 mmHg 44%
    17:00 +20°C° 0 mm 1 m/s 759 mmHg 51%
    18:00 +18°C° 0 mm 1 m/s 759 mmHg 58%
    19:00 +15°C° 0 mm 1 m/s 759 mmHg 66%
    20:00 +15°C° 0 mm 2 m/s 759 mmHg 67%
    21:00 +14°C° 0 mm 2 m/s 759 mmHg 69%
    22:00 +14°C° 0 mm 2 m/s 759 mmHg 71%
    23:00 +13°C° 0 mm 2 m/s 758 mmHg 72%

    Demain, 22 Septembre, Dimanche

    Heure Température Précipitation Vent Pression Humidité
    00:00 +13°C° 0 mm 2 m/s 758 mmHg 72%
    01:00 +12°C° 0 mm 2 m/s 758 mmHg 73%
    02:00 +12°C° 0 mm 2 m/s 758 mmHg 72%
    03:00 +12°C° 0 mm 2 m/s 757 mmHg 72%
    04:00 +12°C° 0 mm 2 m/s 757 mmHg 72%
    05:00 +12°C° 0 mm 2 m/s 757 mmHg 70%
    06:00 +12°C° 0 mm 2 m/s 757 mmHg 68%
    07:00 +13°C° 0 mm 2 m/s 756 mmHg 66%
    08:00 +14°C° 0 mm 3 m/s 756 mmHg 57%
    09:00 +18°C° 0 mm 3 m/s 756 mmHg 49%
    10:00 +20°C° 0 mm 4 m/s 756 mmHg 41%
    11:00 +21°C° 0 mm 4 m/s 756 mmHg 39%
    12:00 +22°C° 0 mm 4 m/s 755 mmHg 37%
    13:00 +23°C° 0 mm 4 m/s 755 mmHg 35%
    14:00 +24°C° 0 mm 3 m/s 754 mmHg 36%
    15:00 +24°C° 0 mm 3 m/s 754 mmHg 37%
    16:00 +24°C° 0 mm 3 m/s 753 mmHg 39%
    17:00 +21°C° 0 mm 3 m/s 753 mmHg 44%
    18:00 +18°C° 0 mm 3 m/s 753 mmHg 49%
    19:00 +16°C° 0 mm 2 m/s 753 mmHg 55%
    20:00 +16°C° 0 mm 2 m/s 754 mmHg 56%
    21:00 +15°C° 0 mm 2 m/s 754 mmHg 57%
    22:00 +14°C° 0 mm 2 m/s 754 mmHg 58%
    23:00 +14°C° 0 mm 2 m/s 754 mmHg 59%

    Après-demain, 23 Septembre, Lundi

    Heure Température Précipitation Vent Pression Humidité
    00:00 +13°C° 0 mm 2 m/s 753 mmHg 60%
    01:00 +13°C° 0 mm 2 m/s 753 mmHg 60%
    02:00 +13°C° 0 mm 2 m/s 753 mmHg 62%
    03:00 +12°C° 0 mm 2 m/s 753 mmHg 63%
    04:00 +12°C° 0 mm 2 m/s 753 mmHg 65%
    05:00 +12°C° 0 mm 2 m/s 753 mmHg 63%
    06:00 +13°C° 0 mm 2 m/s 753 mmHg 62%
    07:00 +13°C° 0 mm 2 m/s 753 mmHg 61%
    08:00 +15°C° 0 mm 2 m/s 753 mmHg 56%
    09:00 +17°C° 0 mm 2 m/s 753 mmHg 51%
    10:00 +19°C° 0 mm 2 m/s 753 mmHg 47%
    11:00 +20°C° 0 mm 2 m/s 753 mmHg 45%
    12:00 +21°C° 0 mm 2 m/s 753 mmHg 43%
    13:00 +23°C° 0 mm 2 m/s 753 mmHg 42%
    14:00 +23°C° 0 mm 2 m/s 753 mmHg 46%
    15:00 +21°C° 0 mm 2 m/s 753 mmHg 50%
    16:00 +21°C° 0 mm 2 m/s 753 mmHg 54%
    17:00 +19°C° 0 mm 2 m/s 753 mmHg 66%
    18:00 +17°C° 0 mm 2 m/s 753 mmHg 79%
    19:00 +16°C° 0 mm 2 m/s 753 mmHg 91%
    20:00 +15°C° 0.1 mm 2 m/s 754 mmHg 93%
    21:00 +15°C° 0.1 mm 2 m/s 754 mmHg 94%
    22:00 +15°C° 0.1 mm 2 m/s 754 mmHg 95%
    23:00 +15°C° 0.1 mm 2 m/s 754 mmHg 95%

    24 Septembre, Mardi

    Heure Température Précipitation Vent Pression Humidité
    00:00 +15°C° 0.1 mm 2 m/s 754 mmHg 94%
    01:00 +15°C° 0.1 mm 2 m/s 754 mmHg 93%
    02:00 +15°C° 0.1 mm 2 m/s 754 mmHg 93%
    03:00 +15°C° 0.1 mm 2 m/s 754 mmHg 93%
    04:00 +15°C° 0.1 mm 2 m/s 754 mmHg 93%
    05:00 +15°C° 0.1 mm 2 m/s 753 mmHg 93%
    06:00 +15°C° 0.1 mm 2 m/s 753 mmHg 93%
    07:00 +15°C° 0.1 mm 1 m/s 753 mmHg 92%
    08:00 +16°C° 0 mm 2 m/s 753 mmHg 88%
    09:00 +16°C° 0 mm 2 m/s 753 mmHg 84%
    10:00 +17°C° 0 mm 2 m/s 753 mmHg 80%
    11:00 +18°C° 0 mm 2 m/s 753 mmHg 78%
    12:00 +18°C° 0 mm 2 m/s 752 mmHg 76%
    13:00 +18°C° 0 mm 2 m/s 752 mmHg 74%
    14:00 +19°C° 0 mm 2 m/s 752 mmHg 72%
    15:00 +19°C° 0 mm 2 m/s 751 mmHg 70%
    16:00 +19°C° 0 mm 2 m/s 751 mmHg 69%
    17:00 +18°C° 0 mm 2 m/s 751 mmHg 73%
    18:00 +17°C° 0 mm 2 m/s 751 mmHg 77%
    19:00 +16°C° 0 mm 2 m/s 750 mmHg 82%
    20:00 +16°C° 0.1 mm 2 m/s 750 mmHg 83%
    21:00 +16°C° 0.1 mm 2 m/s 750 mmHg 83%
    22:00 +15°C° 0.1 mm 2 m/s 750 mmHg 84%
    23:00 +15°C° 0.1 mm 2 m/s 750 mmHg 85%

    25 Septembre, Mercredi

    Heure Température Précipitation Vent Pression Humidité
    00:00 +15°C° 0.1 mm 2 m/s 750 mmHg 86%
    01:00 +15°C° 0.1 mm 2 m/s 749 mmHg 87%
    02:00 +15°C° 0 mm 2 m/s 749 mmHg 87%
    03:00 +14°C° 0 mm 2 m/s 749 mmHg 86%
    04:00 +14°C° 0 mm 2 m/s 748 mmHg 85%
    05:00 +14°C° 0.1 mm 2 m/s 748 mmHg 85%
    06:00 +14°C° 0.1 mm 2 m/s 748 mmHg 86%
    07:00 +14°C° 0.1 mm 2 m/s 748 mmHg 86%
    08:00 +14°C° 0.3 mm 3 m/s 748 mmHg 83%
    09:00 +16°C° 0.3 mm 3 m/s 748 mmHg 81%
    10:00 +15°C° 0.3 mm 4 m/s 748 mmHg 79%
    11:00 +17°C° 0.5 mm 4 m/s 748 mmHg 76%
    12:00 +18°C° 0.5 mm 4 m/s 748 mmHg 73%
    13:00 +19°C° 0.5 mm 4 m/s 748 mmHg 70%
    14:00 +18°C° 0.8 mm 4 m/s 748 mmHg 71%
    15:00 +18°C° 0.8 mm 4 m/s 748 mmHg 73%
    16:00 +17°C° 0.8 mm 4 m/s 748 mmHg 74%
    17:00 +15°C° 0.4 mm 4 m/s 749 mmHg 78%
    18:00 +16°C° 0.4 mm 3 m/s 749 mmHg 82%
    19:00 +15°C° 0.4 mm 2 m/s 749 mmHg 85%
    20:00 +13°C° 0.1 mm 3 m/s 750 mmHg 86%
    21:00 +13°C° 0.1 mm 3 m/s 750 mmHg 86%
    22:00 +12°C° 0.1 mm 3 m/s 750 mmHg 86%
    23:00 +12°C° 0 mm 3 m/s 750 mmHg 87%

    26 Septembre, Jeudi

    Heure Température Précipitation Vent Pression Humidité
    00:00 +11°C° 0 mm 3 m/s 750 mmHg 88%
    01:00 +10°C° 0 mm 3 m/s 750 mmHg 89%
    02:00 +10°C° 0 mm 3 m/s 750 mmHg 89%
    03:00 +10°C° 0 mm 3 m/s 750 mmHg 90%
    04:00 +10°C° 0 mm 3 m/s 750 mmHg 91%
    05:00 +10°C° 0 mm 3 m/s 750 mmHg 90%
    06:00 +11°C° 0 mm 3 m/s 750 mmHg 90%
    07:00 +12°C° 0 mm 3 m/s 750 mmHg 89%
    08:00 +12°C° 0.4 mm 3 m/s 750 mmHg 90%
    09:00 +12°C° 0.4 mm 3 m/s 751 mmHg 91%
    10:00 +13°C° 0.4 mm 3 m/s 751 mmHg 91%
    11:00 +13°C° 0.8 mm 3 m/s 751 mmHg 91%
    12:00 +13°C° 0.8 mm 3 m/s 750 mmHg 91%
    13:00 +13°C° 0.8 mm 3 m/s 750 mmHg 90%
    14:00 +14°C° 0.1 mm 3 m/s 750 mmHg 86%
    15:00 +16°C° 0.1 mm 2 m/s 750 mmHg 82%
    16:00 +17°C° 0.1 mm 2 m/s 750 mmHg 78%
    17:00 +16°C° 0 mm 2 m/s 750 mmHg 80%
    18:00 +16°C° 0 mm 2 m/s 750 mmHg 83%
    19:00 +14°C° 0 mm 3 m/s 749 mmHg 85%
    20:00 +14°C° 0.5 mm 3 m/s 749 mmHg 88%
    21:00 +14°C° 0.5 mm 3 m/s 749 mmHg 90%
    22:00 +14°C° 0.5 mm 3 m/s 749 mmHg 93%
    23:00 +14°C° 0.3 mm 4 m/s 749 mmHg 92%
    Voir plus